OPS 4682 DEB, 38412

Orbit data source: Space-Track

OPS 4682 DEB, 38412 is space debris in LEO originally from a launch on Sat, 03 Apr 1965 UTC launched from the Air Force Western Test Range (AFWTR). Debris objects in space refer to the collection of defunct objects orbiting the Earth. Examples of debris include non-operational satellites, rocket bodies, and fragments generated from explosions, collisions, or faulty payload assembly.

Loading next visibility...
Identifier
38412, 1965-027DR
Orbit
LEO
Country
Flag of USUS
Related business
Manufacturer
Unknown
Mission
Spacecraft
Bus & Motor
Unknown
Mass
Unknown
Launch date (UTC)
1965-04-03 (61 years ago)
Launch vehicle
Unknown
Launch site
Air Force Western Test Range (AFWTR)
Object type
Payload
Rocket body
Debris
Shape & HBR
Unknown shape, 0.1 m
Radar Cross Section
Small (<0.1 m²)

Expand to show TLE details & history
Last TLE update: 1 day ago

TLE from 1 day ago
0 OPS 4682 DEB
1 38412U 65027DR  26035.15332067 -.00000161  00000-0 -59912-3 0  9990
2 38412  90.2378   0.2838 0029373 244.9080 114.8990 12.94787002613441
Epoch: 2026-02-04T03:40Z
TLE epoch observation values (Epoch: 2026-02-04T03:40:46.905Z)
Latitude
-0.00006°
Longitude
170.76437°
Altitude
1,294.986 km
Speed
7.204 km/s
True Right ascension
00h 01m 08s
True Declination
0° 00' 00"
Sunlit
Object was in daylight at epoch
Visualization orbit readout
Latitude
Unknown
Longitude
Unknown
Altitude
Unknown
Speed
Unknown
Apparent Right ascension
Unknown
Apparent Declination
Unknown
Sunlit
N/A
Visualization observer readout
Local Sidereal Time
10:11:03
Azimuth
Unknown
Elevation
Unknown
Doppler factor
Unknown
Orbital elements
Apogee altitude
1,302.208 km
Perigee altitude
1,257.221 km
Semi-major axis
7,657.852 km
Eccentricity
0.00294
Inclination
90.2378°
RAAN
0.2838°
Arg. of periapsis
244.908°
True anomaly
115.20383°
Mean anomaly
114.899°
Eccentric anomaly
115.05146°
Mean motion
3.23879 °/min
Orbital period
111.15 mins
BSTAR
-0.00059912
Loading maneuver chart data...
Computing Atmospheric mass density...
Loading historical data...
Loading historical data...
Loading historical data...
Loading historical data...
Loading historical data...
Loading historical data...
Loading historical data...

Documentation

Showing up to 5 results
|